Regional Weather Roundup
Issued by NWS

Home | Current Version | Previous Version | Text Only | Print | Product List | Glossary Off
Versions: 1 2 3 4 5 6 7 8 9 10 11 12 13 14 15 16 17 18 19 20 21 22 23 24 25 26 27

000
ASUS45 KCYS 290110
RWRWY

WYOMING REGIONAL WEATHER ROUNDUP
NATIONAL WEATHER SERVICE CHEYENNE WY
700 PM MDT FRI APR 28 2017

NOTE:  "FAIR" INDICATES FEW OR NO CLOUDS BELOW 12,000 FEET
WITH NO SIGNIFICANT WEATHER AND/OR OBSTRUCTIONS TO VISIBILITY.

WYZ001-290200-
YELLOWSTONE NATIONAL PARK

CITY           SKY/WX    TMP DP  RH WIND       PRES   REMARKS
LK YELLOWSTONE   N/A     30  22  72 VRB3      30.03R
W YELLOWSTONE  NOT AVBL

$$
WYZ002>013-054>058-071-098>099-290200-
NORTHERN WYOMING

CITY           SKY/WX    TMP DP  RH WIND       PRES   REMARKS
JACKSON        MOSUNNY   39  23  52 N12G18    29.96R WCI  32
CODY           FAIR      38  29  70 N13       30.09R WCI  30
GREYBULL       CLOUDY    45  26  47 NW13      30.05R
WORLAND        CLOUDY    39  35  86 W10       30.06R WCI  32
SHERIDAN       CLOUDY    37  33  85 S3        30.13R
BUFFALO        CLOUDY    34  25  69 W9        30.12R WCI  27
GILLETTE       CLOUDY    35  30  82 W8        30.10R WCI  29
HULETT         FAIR      43  25  49 NE3       30.10R
NEWCASTLE      FAIR      41  21  45 E7        30.09R

$$
WYZ014>020-022>026-101>103-290200-
CENTRAL WYOMING

CITY           SKY/WX    TMP DP  RH WIND       PRES   REMARKS
BIG PINEY      CLOUDY    35  26  69 W8        29.94R WCI  29
PINEDALE       MOCLDY    34  18  51 N16       29.96R WCI  23
DUBOIS         CLOUDY    30  23  74 S18       30.00R WCI  18
LANDER         LGT SNOW  30  29  96 E9        30.05R VSB 1   WCI  22
RIVERTON       SNOW      30  30 100 E7        30.06R VSB 1/2 WCI  23
CASPER         CLOUDY    31  27  85 E22       30.06R WCI  18
DOUGLAS        LGT SNOW  30  27  88 E14       30.09R FOG     WCI  19

$$
WYZ021-027>030-104>119-290200-
SOUTHERN WYOMING

CITY           SKY/WX    TMP DP  RH WIND       PRES   REMARKS
EVANSTON       LGT SNOW  30  27  88 NE8       29.93S FOG     WCI  22
KEMMERER       LGT SNOW  32  27  80 E13       29.95R WCI  22
FORT BRIDGER   CLOUDY    33  31  90 NE10G16   29.96R WCI  25
ROCK SPRINGS   CLOUDY    31  24  75 NE29G37   29.91R WCI  16
DIXON            N/A     40  28  63 N15       29.85S WCI  32
RAWLINS        CLOUDY    30  22  72 E23G31    29.93R WCI  17
SARATOGA       CLOUDY    32  28  86 E9        29.89R WCI  24
LARAMIE        CLOUDY    26  19  74 E17G24    29.92R WCI  13
CHEYENNE       FOG       28  25  88 NE16G26   29.95S VSB 1/2 WCI  16
TORRINGTON     LGT SNOW  32  31  96 NE12      30.06R VSB 3/4 WCI  23
PINE BLUFFS    CLOUDY    30  30 100 NE17      29.99R WCI  18

$$




USA.gov is the U.S. government's official web portal to all federal, state and local government web resources and services.